Location: Newark
(48.2308°N, 120.8549°W)
Time: 22:43:31
(UTC+00:00)

Transit 2A Rocket - Pass Details

Date: 30 May 2020
Orbit: 584 x 919 km, 66.7° (Epoch: 10 July)

Event Time Altitude Azimuth Distance (km) Brightness Sun altitude
Rises 16:32:31 0° 315° (NW) 3,523 8.0 41.1°
Reaches altitude 10° 16:35:35 10° 300° (WNW) 2,603 7.4 41.6°
Maximum altitude 16:40:01 21° 254° (WSW) 1,921 6.9 42.3°
Drops below altitude 10° 16:44:27 10° 207° (SSW) 2,600 7.8 43.0°
Sets 16:47:31 0° 192° (SSW) 3,517 8.5 43.5°
